Location: Newark
(50.8964°N, 1.4048°W)
Time: 19:24:54
(UTC+00:00)

N. Korean satellite - Pass Details

Date: 01 February 2020
Orbit: 456 x 506 km, 97.2° (Epoch: 17 February)

Event Time Altitude Azimuth Distance (km) Brightness Sun altitude
Rises 05:49:30 0° 16° (NNE) 2,561 10.4 -17.9°
Reaches altitude 10° 05:51:35 10° 20° (NNE) 1,684 9.5 -17.6°
Maximum altitude 05:55:11 60° 101° (E) 569 7.1 -17.0°
Drops below altitude 10° 05:58:47 10° 182° (S) 1,695 9.4 -16.5°
Sets 06:00:53 0° 186° (S) 2,579 10.3 -16.1°
